TimeEDT,TemperatureF,Dew PointF,Humidity,Sea Level PressureIn,VisibilityMPH,Wind Direction,Wind SpeedMPH,Gust SpeedMPH,PrecipitationIn,Events,Conditions,WindDirDegrees,DateUTC
12:15 AM,64.4,60.8,88,30.03,10.0,SSW,5.8,-,N/A,,Clear,210,2012-04-10 04:15:00
12:35 AM,62.6,60.8,94,30.03,10.0,WSW,3.5,-,N/A,,Clear,240,2012-04-10 04:35:00
12:55 AM,62.6,60.8,94,30.03,10.0,SSW,4.6,-,N/A,,Clear,210,2012-04-10 04:55:00
1:15 AM,60.8,59.0,94,30.03,10.0,West,3.5,-,N/A,,Clear,270,2012-04-10 05:15:00
1:35 AM,62.6,60.8,94,30.04,10.0,SW,4.6,-,N/A,,Clear,230,2012-04-10 05:35:00
1:55 AM,60.8,59.0,94,30.03,7.0,SW,4.6,-,N/A,,Clear,230,2012-04-10 05:55:00
2:15 AM,60.8,59.0,94,30.03,10.0,SW,3.5,-,N/A,,Clear,230,2012-04-10 06:15:00
2:35 AM,60.8,57.2,88,30.02,5.0,Calm,Calm,-,N/A,,Clear,0,2012-04-10 06:35:00
2:55 AM,59.0,59.0,100,30.01,0.8,WSW,3.5,-,N/A,,Unknown,240,2012-04-10 06:55:00
3:15 AM,57.2,55.4,94,30.01,3.0,West,4.6,-,N/A,,Clear,270,2012-04-10 07:15:00
3:35 AM,57.2,55.4,94,30.00,2.5,West,3.5,-,N/A,,Clear,270,2012-04-10 07:35:00
3:55 AM,57.2,55.4,94,30.00,3.0,West,4.6,-,N/A,,Clear,260,2012-04-10 07:55:00
4:15 AM,57.2,55.4,94,30.00,10.0,West,3.5,-,N/A,,Clear,270,2012-04-10 08:15:00
4:35 AM,57.2,53.6,88,30.00,10.0,West,4.6,-,N/A,,Clear,270,2012-04-10 08:35:00
4:55 AM,57.2,53.6,88,30.01,10.0,West,4.6,-,N/A,,Clear,270,2012-04-10 08:55:00
5:15 AM,55.4,51.8,88,30.02,10.0,Calm,Calm,-,N/A,,Clear,0,2012-04-10 09:15:00
5:35 AM,55.4,51.8,88,30.02,10.0,West,4.6,-,N/A,,Clear,280,2012-04-10 09:35:00
5:55 AM,55.4,51.8,88,30.02,10.0,WNW,3.5,-,N/A,,Clear,290,2012-04-10 09:55:00
6:15 AM,53.6,51.8,94,30.03,10.0,Calm,Calm,-,N/A,,Clear,0,2012-04-10 10:15:00
6:35 AM,53.6,51.8,94,30.04,10.0,Calm,Calm,-,N/A,,Clear,0,2012-04-10 10:35:00
6:55 AM,51.8,50.0,94,30.05,10.0,Calm,Calm,-,N/A,,Clear,0,2012-04-10 10:55:00
7:15 AM,51.8,50.0,94,30.06,2.0,Calm,Calm,-,N/A,,Clear,0,2012-04-10 11:15:00
7:35 AM,51.8,50.0,94,30.06,10.0,Calm,Calm,-,N/A,,Clear,0,2012-04-10 11:35:00
7:55 AM,51.8,51.8,100,30.07,10.0,Calm,Calm,-,N/A,,Clear,0,2012-04-10 11:55:00
8:15 AM,53.6,51.8,94,30.08,10.0,Calm,Calm,-,N/A,,Clear,0,2012-04-10 12:15:00
8:35 AM,59.0,51.8,77,30.08,10.0,Calm,Calm,-,N/A,,Clear,0,2012-04-10 12:35:00
8:55 AM,60.8,51.8,72,30.08,10.0,Calm,Calm,-,N/A,,Clear,0,2012-04-10 12:55:00
9:15 AM,62.6,50.0,63,30.09,10.0,Calm,Calm,-,N/A,,Clear,0,2012-04-10 13:15:00
9:35 AM,64.4,50.0,59,30.09,10.0,NNW,3.5,-,N/A,,Clear,330,2012-04-10 13:35:00
9:55 AM,68.0,48.2,49,30.09,10.0,North,5.8,-,N/A,,Clear,350,2012-04-10 13:55:00
10:15 AM,69.8,44.6,40,30.09,10.0,NNW,6.9,-,N/A,,Clear,340,2012-04-10 14:15:00
10:35 AM,71.6,42.8,35,30.09,10.0,North,8.1,-,N/A,,Clear,10,2012-04-10 14:35:00
10:55 AM,71.6,42.8,35,30.09,10.0,North,8.1,-,N/A,,Clear,10,2012-04-10 14:55:00
11:15 AM,73.4,42.8,33,30.09,10.0,North,8.1,-,N/A,,Clear,10,2012-04-10 15:15:00
11:35 AM,73.4,42.8,33,30.09,10.0,NNW,5.8,-,N/A,,Clear,340,2012-04-10 15:35:00
11:55 AM,75.2,41.0,29,30.08,10.0,North,6.9,-,N/A,,Clear,10,2012-04-10 15:55:00
12:15 PM,75.2,41.0,29,30.08,10.0,North,3.5,-,N/A,,Clear,10,2012-04-10 16:15:00
12:35 PM,77.0,41.0,28,30.08,10.0,NNW,5.8,-,N/A,,Clear,340,2012-04-10 16:35:00
12:55 PM,77.0,41.0,28,30.08,10.0,North,5.8,-,N/A,,Clear,10,2012-04-10 16:55:00
1:15 PM,77.0,41.0,28,30.06,10.0,Calm,Calm,-,N/A,,Clear,0,2012-04-10 17:15:00
1:35 PM,78.8,41.0,26,30.05,10.0,East,4.6,-,N/A,,Clear,90,2012-04-10 17:35:00
1:55 PM,78.8,41.0,26,30.05,10.0,West,4.6,-,N/A,,Clear,280,2012-04-10 17:55:00
2:15 PM,78.8,41.0,26,30.04,10.0,Calm,Calm,-,N/A,,Clear,0,2012-04-10 18:15:00
2:35 PM,80.6,42.8,26,30.03,10.0,SSE,9.2,-,N/A,,Clear,150,2012-04-10 18:35:00
2:55 PM,80.6,46.4,30,30.02,10.0,SSE,11.5,-,N/A,,Clear,160,2012-04-10 18:55:00
3:15 PM,78.8,44.6,30,30.01,10.0,SE,6.9,-,N/A,,Clear,130,2012-04-10 19:15:00
3:35 PM,78.8,46.4,32,30.00,10.0,SE,9.2,-,N/A,,Clear,140,2012-04-10 19:35:00
3:55 PM,78.8,46.4,32,29.99,10.0,ESE,9.2,-,N/A,,Clear,110,2012-04-10 19:55:00
4:15 PM,78.8,46.4,32,29.98,10.0,ESE,10.4,-,N/A,,Clear,110,2012-04-10 20:15:00
4:35 PM,77.0,46.4,34,29.98,10.0,SE,10.4,-,N/A,,Clear,140,2012-04-10 20:35:00
4:55 PM,78.8,46.4,32,29.98,10.0,SE,8.1,-,N/A,,Clear,140,2012-04-10 20:55:00
5:15 PM,77.0,46.4,34,29.98,10.0,SSE,8.1,-,N/A,,Clear,150,2012-04-10 21:15:00
5:35 PM,77.0,46.4,34,29.97,10.0,SSE,10.4,-,N/A,,Clear,160,2012-04-10 21:35:00
5:55 PM,73.4,48.2,41,29.97,10.0,SSE,11.5,-,N/A,,Clear,160,2012-04-10 21:55:00
6:15 PM,71.6,51.8,50,29.97,10.0,SSE,9.2,-,N/A,,Clear,160,2012-04-10 22:15:00
6:35 PM,71.6,51.8,50,29.97,10.0,SSE,8.1,-,N/A,,Clear,150,2012-04-10 22:35:00
6:55 PM,71.6,51.8,50,29.97,10.0,SSE,6.9,-,N/A,,Scattered Clouds,160,2012-04-10 22:55:00
7:15 PM,71.6,51.8,50,29.97,10.0,SSE,4.6,-,N/A,,Scattered Clouds,160,2012-04-10 23:15:00
7:35 PM,69.8,51.8,53,29.96,10.0,South,5.8,-,N/A,,Clear,170,2012-04-10 23:35:00
7:55 PM,69.8,51.8,53,29.96,10.0,SSE,3.5,-,N/A,,Clear,160,2012-04-10 23:55:00
8:15 PM,68.0,53.6,60,29.97,10.0,Calm,Calm,-,N/A,,Clear,0,2012-04-11 00:15:00
8:35 PM,64.4,53.6,68,29.97,10.0,Calm,Calm,-,N/A,,Clear,0,2012-04-11 00:35:00
8:55 PM,62.6,53.6,72,29.97,10.0,Calm,Calm,-,N/A,,Clear,0,2012-04-11 00:55:00
9:15 PM,60.8,53.6,77,29.98,10.0,Calm,Calm,-,N/A,,Clear,0,2012-04-11 01:15:00
9:35 PM,60.8,53.6,77,29.98,10.0,Calm,Calm,-,N/A,,Clear,0,2012-04-11 01:35:00
9:55 PM,60.8,53.6,77,29.99,10.0,SW,3.5,-,N/A,,Clear,230,2012-04-11 01:55:00
10:15 PM,59.0,53.6,82,29.99,10.0,WSW,3.5,-,N/A,,Clear,250,2012-04-11 02:15:00
10:35 PM,60.8,53.6,77,30.00,10.0,West,4.6,-,N/A,,Clear,260,2012-04-11 02:35:00
10:55 PM,60.8,53.6,77,30.00,10.0,WSW,3.5,-,N/A,,Clear,240,2012-04-11 02:55:00
11:15 PM,60.8,53.6,77,30.00,10.0,SW,6.9,-,N/A,,Clear,220,2012-04-11 03:15:00
11:35 PM,60.8,51.8,72,30.00,10.0,SW,4.6,-,N/A,,Clear,230,2012-04-11 03:35:00
11:55 PM,60.8,51.8,72,30.00,10.0,WSW,4.6,-,N/A,,Clear,240,2012-04-11 03:55:00